SCP
0 0 0 0 0 0 0 0 0 0 0 0 0 0 0 0 0 0 0 0 0 0 0 0 0 0 0 0 0 0 0 0 0 0 0 0 0 0 0 0 0 0 0
0 0 0 0 0 0 0 0 0 0 0 0 0 0 0 0 0 0 0 0 0 0 0 0 0 0 0 0 0 0 0 0 0 0 0 0 0 0 0 0 0 0 0
0 0 0 0 0 0 0 0 0 0 0 0 0 0 0 0 0 0 0 0 0 0 0 0 0 0 0 0 0 0 0 0 0 0 0 0 0 0 0 0 0 0 0
0 0 0 0 0 0 0 0 0 0 0 0 0 0 0 0 0 0 0 0 0 0 0 0 0 0 0 0 0 0 0 0 0 0 0 0 0 0 0 0 -0 -0 -0
0 0 0 0 0 0 0 0 0 0 0 0 0 0 0 0 0 0 0 0 0 0 0 0 0 0 0 0 0 0 0 0 0 0 0 0 0 0 -0 -0 -0 -0 -0
0 0 0 0 0 0 0 0 0 0 0 0 0 0 0 0 0 0 0 0 0 0 0 0 0 0 0 0 0 0 0 0 0 0 0 0 0 0 0 -0 -0 -0 -0
0 0 0 0 0 0 0 0 0 0 0 0 0 0 0 0 0 0 0 0 0 0 0 0 0 0 0 0 0 0 0 0 0 0 0 0 0 0 0 0 0 0 0
0 0 0 0 0 0 0 0 0 0 0 0 0 0 0 0 0 0 0 0 0 0 0 0 0 0 0 0 0 0 0 0 0 0 0 0 0 0 0 0 0 0 0
0 0 0 0 0 0 0 0 0 0 0 0 0 0 0 0 0 0 0 0 0 0 0 0 0 0 0 0 0 0 0 0 0 0 0 0 0 0 0 0 0 0 0
0 0 0 0 0 0 0 0 0 0 0 0 0 0 0 0 0 0 0 0 0 0 0 0 0 0 0 0 0 0 0 0 0 0 0 0 0 0 0 0 0 0 0
0 0 0 0 0 0 0 0 0 0 0 0 0 0 0 0 0 0 0 0 0 0 0 0 0 0 0 0 0 0 0 0 0 0 0 0 0 0 0 0 0 0 0
0 0 0 0 0 0 0 0 0 0 0 0 0 0 0 0 0 0 0 0 0 0 0 0 0 0 0 0 0 0 0 0 0 0 0 0 0 0 0 0 0 0 0
0 0 0 0 0 0 0 0 0 0 0 0 0 0 0 0 0 0 0 0 0 0 0 0 0 0 0 0 0 0 0 0 0 0 0 0 0 0 0 0 0 0 0
0 0 0 0 0 0 0 0 0 0 0 0 0 0 0 0 0 0 0 0 0 0 0 0 0 0 0 0 0 0 0 0 0 0 0 0 0 0 0 0 0 0 0
0 0 0 0 0 0 0 0 0 0 0 0 0 0 0 0 0 0 0 0 0 0 0 0 0 0 0 0 0 0 0 0 0 0 0 0 0 0 0 0 0 0 0
0 0 0 0 0 0 0 0 0 0 0 0 0 0 0 0 0 0 0 0 0 0 0 0 0 0 0 0 0 0 0 0 0 0 0 0 0 0 0 0 0 0 0
0 0 0 0 0 0 0 0 0 0 0 0 0 0 0 0 0 0 0 0 0 0 0 0 0 0 0 0 0 0 0 0 0 0 0 0 0 0 0 0 0 0 0
0 0 0 0 0 0 0 0 0 0 0 0 0 0 0 0 0 0 0 0 0 0 0 0 0 0 0 0 0 0 0 0 0 0 0 0 0 0 0 0 0 0 0
0 0 0 0 0 0 0 0 0 0 0 0 0 0 0 0 0 0 0 0 0 0 0 0 0 0 0 0 0 0 0 0 0 0 0 0 0 0 0 0 0 0 0
0 0 0 0 0 0 0 0 0 0 0 0 0 0 0 0 0 0 0 0 0 0 0 0 0 0 0 0 0 0 0 0 0 0 0 0 0 0 0 0 0 0 0
0 0 0 0 0 0 0 0 0 0 0 0 0 0 0 0 0 0 0 0 0 0 0 0 0 0 0 0 0 0 0 0 0 0 0 0 0 0 0 0 0 0 0
0 0 0 0 0 0 0 0 0 0 0 0 0 0 0 0 0 0 0 0 0 0 0 0 0 0 0 0 0 0 0 0 0 0 0 0 0 0 0 0 0 0 0
0 0 0 0 0 0 0 0 0 0 0 0 0 0 0 0 0 0 0 0 0 0 0 0 0 0 0 0 0 0 0 0 0 0 0 0 0 0 0 0 0 0 0
0 0 0 0 0 0 0 0 0 0 0 0 0 0 0 0 0 0 0 0 0 0 0 0 0 0 0 0 0 0 0 0 0 0 0 0 0 0 0 0 0 0 0
0 0 0 0 0 0 0 0 0 0 0 0 0 0 0 0 0 0 0 0 0 0 0 0 0 0 0 0 0 0 0 0 0 0 0 0 0 0 0 0 0 0 0
0 0 0 0 0 0 0 0 0 0 0 0 0 0 0 0 0 0 0 0 0 0 0 0 0 0 0 0 0 0 0 0 0 0 0 0 0 0 0 0 0 0 0
Wind_Speed_500mb
65 65 59 58 58 67 64 61 50 41 26 18 23 12 9 29 31 25 26 24 22 22 19 20 20 22 23 26 30 36 39 43 48 54 51 51 53 55 53 52 52 56 57
73 74 56 44 47 51 56 51 39 35 30 30 23 24 18 25 22 13 18 21 22 21 21 21 22 27 31 34 37 39 40 41 48 56 55 51 52 53 56 60 60 57 58
73 78 71 63 62 67 51 37 28 24 22 20 24 18 17 19 19 21 20 19 19 21 23 25 27 31 33 33 35 37 39 39 41 50 57 55 57 60 64 63 65 67 63
72 74 76 82 82 74 59 47 36 35 31 27 23 24 23 22 22 22 18 16 18 22 26 27 28 30 31 31 33 36 39 41 44 48 55 59 58 59 62 72 76 72 73
78 86 89 85 77 66 59 51 46 40 31 26 25 25 23 21 18 15 13 14 17 20 23 24 25 28 33 34 35 38 40 43 46 49 51 55 59 65 71 75 75 79 81
83 82 78 68 65 59 57 53 47 37 35 31 23 20 18 16 14 11 11 11 13 16 19 23 25 27 29 30 31 34 40 46 48 50 51 54 57 60 64 69 74 80 72
63 70 68 62 56 50 48 40 41 39 33 26 24 22 17 13 9 4 6 10 12 16 18 20 25 29 30 34 36 36 37 39 41 44 48 51 61 59 63 68 68 66 70
58 56 57 57 53 51 46 40 36 30 27 26 22 16 12 7 1 4 7 8 11 15 19 24 28 32 36 41 42 41 38 39 40 41 47 52 52 54 54 56 60 61 66
49 54 49 41 41 42 41 39 34 27 23 18 16 13 10 9 6 2 4 9 15 19 23 25 28 31 37 42 45 47 44 39 39 44 48 50 48 49 48 52 56 66 73
37 40 38 38 40 37 34 32 28 23 19 19 17 16 13 9 4 5 12 16 19 21 23 26 29 33 36 42 47 51 52 51 52 47 45 44 46 44 44 48 54 55 60
47 41 37 33 28 25 23 22 20 21 20 20 18 15 10 4 5 9 12 15 16 18 21 25 30 35 41 45 49 50 50 53 48 46 43 43 41 44 48 47 48 50 55
39 37 33 29 26 23 21 19 20 20 24 22 16 9 1 5 8 11 15 18 22 24 24 29 35 40 43 45 46 44 45 44 43 42 43 43 48 50 50 50 50 50 49
35 30 26 22 23 21 19 19 23 22 20 14 10 5 6 9 11 15 19 23 27 29 29 34 38 40 41 41 39 39 39 40 41 42 44 47 50 52 55 57 55 55 53
27 25 25 26 22 20 24 23 20 21 20 16 12 14 16 19 21 19 23 29 28 31 33 36 38 39 38 36 36 37 38 40 42 44 46 49 51 55 59 61 65 67 68
23 20 19 18 19 20 21 24 28 28 25 22 21 23 26 28 25 27 32 30 27 31 34 38 38 38 38 35 34 35 37 40 42 45 49 52 55 59 61 63 66 68 67
19 21 23 26 28 29 30 33 33 31 31 29 29 30 34 35 32 33 33 30 32 36 36 37 38 38 37 35 35 36 38 41 43 47 49 51 55 58 62 62 62 65 69
22 21 22 24 26 28 30 33 36 36 36 38 40 43 40 35 35 37 35 35 35 35 33 36 37 36 36 35 36 37 39 40 42 43 46 49 52 53 58 61 64 67 72
21 24 28 29 30 33 36 38 39 41 43 45 42 42 41 40 41 39 35 33 31 33 36 37 36 35 34 34 35 38 39 38 39 42 44 46 49 53 57 60 65 70 75
27 27 30 34 36 38 42 46 49 50 50 48 47 46 44 41 42 38 35 32 32 33 35 34 34 34 35 36 37 36 37 37 38 41 43 46 49 54 60 63 67 68 71
36 37 38 40 43 45 47 50 51 51 51 50 47 44 43 41 39 35 32 31 32 33 33 34 34 35 36 36 36 35 35 34 36 40 43 46 50 54 59 63 65 69 70
45 45 44 46 48 49 50 52 52 51 51 49 47 44 44 40 34 31 30 30 32 32 33 34 35 35 34 34 33 33 34 37 40 44 48 51 54 57 56 56 60 64 68
47 47 48 48 49 53 54 55 54 52 50 47 43 40 40 32 31 28 28 30 30 32 34 34 33 32 31 31 32 35 38 40 44 48 52 53 51 53 56 58 63 68 70
45 45 45 47 49 50 52 53 52 50 46 43 38 35 33 31 28 27 28 28 29 30 31 30 27 25 27 29 32 36 41 43 47 51 56 55 54 55 56 63 66 69 73
41 39 40 43 46 48 51 49 47 45 41 37 34 33 31 27 25 25 24 25 26 26 24 23 23 25 29 31 31 34 39 44 50 54 56 57 57 56 59 64 70 75 80
28 33 38 43 48 48 45 44 41 38 35 33 31 28 24 23 21 20 21 21 19 16 16 19 23 26 30 33 38 41 43 47 51 52 52 52 53 56 65 71 75 77 80
37 42 46 46 44 41 38 36 34 32 30 28 25 21 21 18 17 17 15 12 10 11 16 21 26 32 36 40 43 43 45 48 51 52 50 53 53 61 69 80 79 75 77
Wind_Direction_500mb
221 220 218 220 221 222 216 197 176 157 156 168 202 231 245 251 238 266 278 269 261 260 260 264 277 283 290 295 298 300 300 300 296 299 311 318 318 317 318 318 317 316 317
211 206 209 215 217 221 195 170 164 176 174 179 216 208 212 207 242 233 239 247 254 264 275 284 288 292 297 301 301 302 303 306 309 312 317 319 322 322 320 321 319 318 321
208 204 202 206 212 189 175 170 174 178 191 202 201 184 190 225 218 226 233 247 262 274 282 289 295 296 298 304 307 309 311 311 311 311 316 322 323 321 320 319 320 322 325
193 191 186 182 184 184 182 174 169 177 184 178 187 200 198 199 211 222 226 247 267 280 288 294 299 302 305 310 309 310 310 313 315 315 318 322 323 326 325 323 325 327 329
189 182 178 177 178 174 172 172 168 167 168 168 176 183 194 206 216 227 248 264 279 288 293 300 307 308 309 311 313 317 320 320 322 321 323 327 330 331 334 334 331 332 332
179 173 170 169 167 168 167 163 165 163 162 167 172 192 201 219 228 245 270 284 293 296 301 307 312 315 319 321 324 327 327 329 332 331 331 332 332 331 329 331 330 332 334
173 166 161 157 154 152 149 149 146 164 162 174 189 198 202 211 239 267 308 313 308 310 312 318 323 326 328 329 333 333 334 332 332 331 331 332 326 329 328 324 326 325 322
154 147 145 145 144 144 147 162 153 170 167 176 181 189 190 178 185 337 333 325 325 323 325 332 335 335 336 336 337 338 337 334 332 330 324 323 323 324 322 322 322 319 321
144 141 147 148 150 155 158 163 166 168 171 169 170 159 163 170 167 225 331 341 345 346 345 346 342 339 338 335 335 333 330 328 327 327 327 327 326 324 324 324 328 330 328
131 136 145 154 157 158 159 160 160 161 163 165 163 163 172 167 157 12 1 359 353 348 347 344 340 340 335 332 331 331 332 333 333 333 328 325 324 326 332 332 331 333 332
141 158 156 155 152 156 161 162 163 162 163 172 171 170 166 147 28 11 357 348 335 335 341 336 336 331 331 332 332 332 332 331 332 329 327 326 328 331 331 334 335 334 331
163 152 156 162 169 172 175 175 169 172 183 180 177 175 104 354 340 331 327 325 324 326 332 331 331 332 333 333 330 327 327 326 326 328 332 336 335 335 334 333 332 330 326
164 166 166 167 180 178 188 190 187 187 198 189 195 229 279 276 287 297 298 306 314 316 326 327 331 330 330 330 325 324 324 326 330 335 340 337 336 335 334 332 332 329 324
173 173 183 191 195 193 199 200 200 204 212 220 236 253 261 267 267 282 297 300 308 313 323 327 328 328 324 320 320 323 329 333 337 338 336 335 335 336 337 337 335 334 333
187 200 214 223 226 226 223 220 219 224 231 238 242 247 254 262 283 290 292 299 308 317 325 325 321 318 319 323 325 330 334 335 336 337 338 339 338 337 337 337 337 336 334
212 222 224 225 224 222 221 223 225 230 237 242 249 259 272 277 281 289 294 301 312 317 317 317 319 321 324 329 333 335 335 335 337 337 337 336 336 337 336 335 333 334 335
231 241 247 246 245 241 238 238 239 243 249 254 259 266 271 279 284 290 297 301 306 310 313 314 318 322 328 332 333 333 335 337 335 334 335 337 335 333 335 337 338 338 336
244 251 252 252 249 246 246 247 249 251 256 260 267 270 276 280 283 288 290 294 300 305 309 314 321 327 327 327 330 333 335 335 335 335 335 337 340 340 340 341 341 339 335
254 261 262 258 257 255 252 251 254 256 258 261 265 268 275 275 276 278 280 284 292 303 312 317 320 321 324 329 332 332 331 332 333 333 338 342 344 343 342 340 337 334 332
260 263 264 260 254 255 257 258 258 259 263 267 269 270 269 268 267 271 277 287 300 308 312 316 319 324 328 328 327 327 328 332 337 338 340 343 343 342 338 335 335 333 332
265 265 267 266 261 262 264 264 263 263 264 265 264 264 261 261 265 271 279 292 300 306 311 315 320 322 323 323 323 325 330 335 334 334 335 336 337 336 332 328 331 334 333
263 264 265 265 264 264 265 264 262 261 260 259 258 255 259 259 261 269 283 295 302 306 312 317 321 322 321 322 325 326 326 330 333 331 329 326 327 332 333 335 336 334 333
260 261 262 264 266 266 265 262 259 257 256 255 255 253 254 254 260 278 290 296 302 309 314 318 320 319 320 323 326 326 325 329 327 324 320 316 318 323 326 330 334 333 334
259 266 271 273 272 268 262 258 255 253 252 250 248 245 245 250 268 281 289 298 307 314 319 318 319 325 329 328 328 326 324 323 319 313 311 314 316 320 323 323 324 326 328
275 279 278 276 271 264 260 255 251 249 245 242 239 236 243 261 273 282 294 305 314 313 315 323 326 328 328 330 327 320 314 312 311 315 313 310 313 320 326 325 323 323 324
282 275 273 269 264 260 254 248 242 238 233 229 228 237 255 267 280 294 303 307 308 323 328 328 329 330 328 324 319 316 315 313 312 314 319 318 321 329 327 324 320 317 318
Wind_Speed_850mb
65 65 59 58 58 67 64 61 50 41 26 18 23 12 9 29 31 25 26 24 22 22 19 20 20 22 23 26 30 36 39 43 48 54 51 51 53 55 53 52 52 56 57
73 74 56 44 47 51 56 51 39 35 30 30 23 24 18 25 22 13 18 21 22 21 21 21 22 27 31 34 37 39 40 41 48 56 55 51 52 53 56 60 60 57 58
73 78 71 63 62 67 51 37 28 24 22 20 24 18 17 19 19 21 20 19 19 21 23 25 27 31 33 33 35 37 39 39 41 50 57 55 57 60 64 63 65 67 63
72 74 76 82 82 74 59 47 36 35 31 27 23 24 23 22 22 22 18 16 18 22 26 27 28 30 31 31 33 36 39 41 44 48 55 59 58 59 62 72 76 72 73
78 86 89 85 77 66 59 51 46 40 31 26 25 25 23 21 18 15 13 14 17 20 23 24 25 28 33 34 35 38 40 43 46 49 51 55 59 65 71 75 75 79 81
83 82 78 68 65 59 57 53 47 37 35 31 23 20 18 16 14 11 11 11 13 16 19 23 25 27 29 30 31 34 40 46 48 50 51 54 57 60 64 69 74 80 72
63 70 68 62 56 50 48 40 41 39 33 26 24 22 17 13 9 4 6 10 12 16 18 20 25 29 30 34 36 36 37 39 41 44 48 51 61 59 63 68 68 66 70
58 56 57 57 53 51 46 40 36 30 27 26 22 16 12 7 1 4 7 8 11 15 19 24 28 32 36 41 42 41 38 39 40 41 47 52 52 54 54 56 60 61 66
49 54 49 41 41 42 41 39 34 27 23 18 16 13 10 9 6 2 4 9 15 19 23 25 28 31 37 42 45 47 44 39 39 44 48 50 48 49 48 52 56 66 73
37 40 38 38 40 37 34 32 28 23 19 19 17 16 13 9 4 5 12 16 19 21 23 26 29 33 36 42 47 51 52 51 52 47 45 44 46 44 44 48 54 55 60
47 41 37 33 28 25 23 22 20 21 20 20 18 15 10 4 5 9 12 15 16 18 21 25 30 35 41 45 49 50 50 53 48 46 43 43 41 44 48 47 48 50 55
39 37 33 29 26 23 21 19 20 20 24 22 16 9 1 5 8 11 15 18 22 24 24 29 35 40 43 45 46 44 45 44 43 42 43 43 48 50 50 50 50 50 49
35 30 26 22 23 21 19 19 23 22 20 14 10 5 6 9 11 15 19 23 27 29 29 34 38 40 41 41 39 39 39 40 41 42 44 47 50 52 55 57 55 55 53
27 25 25 26 22 20 24 23 20 21 20 16 12 14 16 19 21 19 23 29 28 31 33 36 38 39 38 36 36 37 38 40 42 44 46 49 51 55 59 61 65 67 68
23 20 19 18 19 20 21 24 28 28 25 22 21 23 26 28 25 27 32 30 27 31 34 38 38 38 38 35 34 35 37 40 42 45 49 52 55 59 61 63 66 68 67
19 21 23 26 28 29 30 33 33 31 31 29 29 30 34 35 32 33 33 30 32 36 36 37 38 38 37 35 35 36 38 41 43 47 49 51 55 58 62 62 62 65 69
22 21 22 24 26 28 30 33 36 36 36 38 40 43 40 35 35 37 35 35 35 35 33 36 37 36 36 35 36 37 39 40 42 43 46 49 52 53 58 61 64 67 72
21 24 28 29 30 33 36 38 39 41 43 45 42 42 41 40 41 39 35 33 31 33 36 37 36 35 34 34 35 38 39 38 39 42 44 46 49 53 57 60 65 70 75
27 27 30 34 36 38 42 46 49 50 50 48 47 46 44 41 42 38 35 32 32 33 35 34 34 34 35 36 37 36 37 37 38 41 43 46 49 54 60 63 67 68 71
36 37 38 40 43 45 47 50 51 51 51 50 47 44 43 41 39 35 32 31 32 33 33 34 34 35 36 36 36 35 35 34 36 40 43 46 50 54 59 63 65 69 70
45 45 44 46 48 49 50 52 52 51 51 49 47 44 44 40 34 31 30 30 32 32 33 34 35 35 34 34 33 33 34 37 40 44 48 51 54 57 56 56 60 64 68
47 47 48 48 49 53 54 55 54 52 50 47 43 40 40 32 31 28 28 30 30 32 34 34 33 32 31 31 32 35 38 40 44 48 52 53 51 53 56 58 63 68 70
45 45 45 47 49 50 52 53 52 50 46 43 38 35 33 31 28 27 28 28 29 30 31 30 27 25 27 29 32 36 41 43 47 51 56 55 54 55 56 63 66 69 73
41 39 40 43 46 48 51 49 47 45 41 37 34 33 31 27 25 25 24 25 26 26 24 23 23 25 29 31 31 34 39 44 50 54 56 57 57 56 59 64 70 75 80
28 33 38 43 48 48 45 44 41 38 35 33 31 28 24 23 21 20 21 21 19 16 16 19 23 26 30 33 38 41 43 47 51 52 52 52 53 56 65 71 75 77 80
37 42 46 46 44 41 38 36 34 32 30 28 25 21 21 18 17 17 15 12 10 11 16 21 26 32 36 40 43 43 45 48 51 52 50 53 53 61 69 80 79 75 77
Wind_Direction_850mb
221 220 218 220 221 222 216 197 176 157 156 168 202 231 245 251 238 266 278 269 261 260 260 264 277 283 290 295 298 300 300 300 296 299 311 318 318 317 318 318 317 316 317
211 206 209 215 217 221 195 170 164 176 174 179 216 208 212 207 242 233 239 247 254 264 275 284 288 292 297 301 301 302 303 306 309 312 317 319 322 322 320 321 319 318 321
208 204 202 206 212 189 175 170 174 178 191 202 201 184 190 225 218 226 233 247 262 274 282 289 295 296 298 304 307 309 311 311 311 311 316 322 323 321 320 319 320 322 325
193 191 186 182 184 184 182 174 169 177 184 178 187 200 198 199 211 222 226 247 267 280 288 294 299 302 305 310 309 310 310 313 315 315 318 322 323 326 325 323 325 327 329
189 182 178 177 178 174 172 172 168 167 168 168 176 183 194 206 216 227 248 264 279 288 293 300 307 308 309 311 313 317 320 320 322 321 323 327 330 331 334 334 331 332 332
179 173 170 169 167 168 167 163 165 163 162 167 172 192 201 219 228 245 270 284 293 296 301 307 312 315 319 321 324 327 327 329 332 331 331 332 332 331 329 331 330 332 334
173 166 161 157 154 152 149 149 146 164 162 174 189 198 202 211 239 267 308 313 308 310 312 318 323 326 328 329 333 333 334 332 332 331 331 332 326 329 328 324 326 325 322
154 147 145 145 144 144 147 162 153 170 167 176 181 189 190 178 185 337 333 325 325 323 325 332 335 335 336 336 337 338 337 334 332 330 324 323 323 324 322 322 322 319 321
144 141 147 148 150 155 158 163 166 168 171 169 170 159 163 170 167 225 331 341 345 346 345 346 342 339 338 335 335 333 330 328 327 327 327 327 326 324 324 324 328 330 328
131 136 145 154 157 158 159 160 160 161 163 165 163 163 172 167 157 12 1 359 353 348 347 344 340 340 335 332 331 331 332 333 333 333 328 325 324 326 332 332 331 333 332
141 158 156 155 152 156 161 162 163 162 163 172 171 170 166 147 28 11 357 348 335 335 341 336 336 331 331 332 332 332 332 331 332 329 327 326 328 331 331 334 335 334 331
163 152 156 162 169 172 175 175 169 172 183 180 177 175 104 354 340 331 327 325 324 326 332 331 331 332 333 333 330 327 327 326 326 328 332 336 335 335 334 333 332 330 326
164 166 166 167 180 178 188 190 187 187 198 189 195 229 279 276 287 297 298 306 314 316 326 327 331 330 330 330 325 324 324 326 330 335 340 337 336 335 334 332 332 329 324
173 173 183 191 195 193 199 200 200 204 212 220 236 253 261 267 267 282 297 300 308 313 323 327 328 328 324 320 320 323 329 333 337 338 336 335 335 336 337 337 335 334 333
187 200 214 223 226 226 223 220 219 224 231 238 242 247 254 262 283 290 292 299 308 317 325 325 321 318 319 323 325 330 334 335 336 337 338 339 338 337 337 337 337 336 334
212 222 224 225 224 222 221 223 225 230 237 242 249 259 272 277 281 289 294 301 312 317 317 317 319 321 324 329 333 335 335 335 337 337 337 336 336 337 336 335 333 334 335
231 241 247 246 245 241 238 238 239 243 249 254 259 266 271 279 284 290 297 301 306 310 313 314 318 322 328 332 333 333 335 337 335 334 335 337 335 333 335 337 338 338 336
244 251 252 252 249 246 246 247 249 251 256 260 267 270 276 280 283 288 290 294 300 305 309 314 321 327 327 327 330 333 335 335 335 335 335 337 340 340 340 341 341 339 335
254 261 262 258 257 255 252 251 254 256 258 261 265 268 275 275 276 278 280 284 292 303 312 317 320 321 324 329 332 332 331 332 333 333 338 342 344 343 342 340 337 334 332
260 263 264 260 254 255 257 258 258 259 263 267 269 270 269 268 267 271 277 287 300 308 312 316 319 324 328 328 327 327 328 332 337 338 340 343 343 342 338 335 335 333 332
265 265 267 266 261 262 264 264 263 263 264 265 264 264 261 261 265 271 279 292 300 306 311 315 320 322 323 323 323 325 330 335 334 334 335 336 337 336 332 328 331 334 333
263 264 265 265 264 264 265 264 262 261 260 259 258 255 259 259 261 269 283 295 302 306 312 317 321 322 321 322 325 326 326 330 333 331 329 326 327 332 333 335 336 334 333
260 261 262 264 266 266 265 262 259 257 256 255 255 253 254 254 260 278 290 296 302 309 314 318 320 319 320 323 326 326 325 329 327 324 320 316 318 323 326 330 334 333 334
259 266 271 273 272 268 262 258 255 253 252 250 248 245 245 250 268 281 289 298 307 314 319 318 319 325 329 328 328 326 324 323 319 313 311 314 316 320 323 323 324 326 328
275 279 278 276 271 264 260 255 251 249 245 242 239 236 243 261 273 282 294 305 314 313 315 323 326 328 328 330 327 320 314 312 311 315 313 310 313 320 326 325 323 323 324
282 275 273 269 264 260 254 248 242 238 233 229 228 237 255 267 280 294 303 307 308 323 328 328 329 330 328 324 319 316 315 313 312 314 319 318 321 329 327 324 320 317 318